RH
86 88 81 75 74 71 65 54 58 62 67 72 74 62 55 59 68 74 76 80 70 72 65 63 61 58 57 54 58 62 62 63 59 53 52 58 58 57 56 58 50 53 50 40
79 77 69 69 70 63 56 56 59 62 61 68 66 54 53 58 63 70 74 79 78 66 69 69 65 61 54 55 60 63 63 66 67 61 55 52 54 54 52 53 54 50 53 41
58 59 58 64 66 65 60 56 54 52 48 53 59 57 55 56 61 68 70 78 80 77 59 64 64 63 61 60 62 63 64 64 59 57 54 52 55 53 55 53 59 54 47 39
55 57 56 59 63 65 61 56 54 48 53 56 63 61 59 59 63 65 70 74 76 91 85 74 67 59 60 62 65 69 71 70 65 63 64 57 49 50 58 56 51 53 42 41
54 59 59 56 61 64 52 52 54 55 56 57 62 63 64 63 68 65 69 74 84 84 95 88 84 74 65 62 59 71 75 76 72 66 60 64 60 54 56 56 53 46 46 41
58 64 68 66 60 55 54 57 57 57 56 59 54 55 56 61 66 70 73 76 84 87 90 94 88 79 73 66 69 80 85 87 83 77 73 75 76 58 53 52 51 49 49 34
59 60 60 60 58 61 61 58 61 62 56 55 57 60 60 63 66 68 70 76 84 90 88 89 96 97 94 83 72 72 78 84 92 91 88 90 58 53 55 56 51 50 45 40
47 50 54 55 54 58 60 63 64 60 55 53 56 60 62 63 68 69 67 68 77 73 76 81 94 96 96 96 96 89 81 85 86 89 89 77 67 65 65 68 59 56 52 45
40 40 50 53 54 58 61 65 69 67 60 53 57 62 65 69 74 71 70 68 62 67 75 78 79 87 91 95 95 96 96 96 94 91 94 92 68 66 66 68 77 63 55 51
38 45 46 48 51 54 62 66 70 74 71 59 65 69 71 76 81 76 71 68 67 66 73 79 85 78 79 83 83 86 94 96 95 94 95 83 69 69 71 76 65 59 57 51
26 31 35 41 48 49 75 54 68 69 74 70 71 74 72 79 81 84 80 75 75 79 81 81 78 81 80 78 75 80 80 83 86 92 95 90 69 73 73 67 62 59 58 58
18 17 18 24 31 49 53 66 77 89 87 87 71 75 79 79 86 89 78 78 78 81 79 81 81 86 86 84 81 80 80 76 77 75 73 66 69 67 71 69 63 61 60 57
31 31 30 30 30 31 45 56 72 87 89 88 94 83 75 79 86 90 95 89 85 81 82 88 86 88 88 85 83 81 78 78 79 74 68 69 68 68 66 63 63 63 63 65
36 38 41 42 42 39 41 43 57 63 74 96 95 98 91 88 85 86 85 86 86 86 87 95 97 92 85 87 85 83 80 85 84 79 75 74 71 73 69 70 65 61 59 59
38 40 42 47 50 54 51 46 44 50 71 85 94 91 97 98 95 92 91 90 95 96 96 97 97 93 94 94 88 82 79 78 81 78 78 76 76 76 75 73 70 68 65 63
44 45 47 54 58 61 60 55 58 60 62 79 95 77 80 93 97 94 89 91 92 97 96 96 91 90 93 93 82 68 71 73 72 72 75 75 77 77 75 75 74 70 67 61
48 48 54 58 62 65 69 69 71 75 75 76 74 76 76 90 93 96 96 98 97 97 94 87 90 93 95 90 78 67 64 66 67 69 74 76 80 79 76 75 74 73 71 66
49 55 58 60 62 66 68 72 77 73 74 80 83 81 86 90 93 97 97 98 98 97 97 93 94 97 95 76 69 70 63 61 61 66 66 66 70 75 75 73 72 70 67 64
55 60 62 61 66 69 73 76 82 81 75 78 71 66 78 88 92 97 96 97 97 97 97 97 96 95 83 76 76 73 66 61 58 57 60 65 67 67 66 65 63 63 63 62
59 65 66 64 71 74 79 87 92 91 92 88 83 80 81 79 84 93 94 95 97 96 93 97 96 82 81 82 82 76 68 62 58 58 56 56 59 64 65 64 65 64 61 60
65 67 70 72 76 81 88 92 93 95 95 94 93 90 89 88 91 97 98 96 96 96 93 97 86 77 82 82 79 73 68 63 60 58 55 56 58 60 62 66 67 66 65 64
70 71 73 77 84 87 89 94 96 96 96 96 96 96 95 93 93 94 95 96 97 97 95 96 88 76 80 81 78 75 71 65 63 62 59 58 60 62 64 66 68 70 72 73
75 78 77 79 87 92 93 93 93 95 95 97 96 96 97 96 95 95 97 97 97 96 97 94 87 84 82 82 80 78 74 71 68 66 66 67 68 65 65 68 71 73 74 72
77 78 82 83 93 93 90 91 91 88 91 93 94 95 96 98 98 98 98 98 97 97 97 91 89 88 89 85 83 81 80 78 76 74 73 71 74 73 71 68 73 74 75 78
82 81 84 88 87 94 93 90 87 88 90 90 93 95 97 98 97 97 97 97 98 95 92 95 96 96 97 96 96 95 95 93 91 89 85 81 78 75 76 76 74 74 78 81
88 88 90 89 93 92 92 88 88 89 87 90 93 96 96 97 97 96 97 97 96 96 97 98 98 97 97 97 97 97 98 97 97 98 98 97 94 91 91 90 86 85 83 79
93 96 92 91 92 92 92 93 92 92 89 89 90 93 94 96 96 96 97 97 97 98 98 97 98 98 98 97 97 96 95 95 97 98 98 98 98 97 97 97 96 93 92 90